GPS BIIF-10

Last updated on Tue Sep 22 2026 00:03:02 GMT+0000 (Coordinated Universal Time)

1 40730U 15033A 26263.95251106 .00000027 00000+0 00000+0 0 9991 2 40730 53.9156 263.1311 0117562 30.5962 330.1048 2.00551324 81919
UTC large
Height (km)
Speed (km/s)
/
Latitude / Longitude
Inclination (degrees)
Orbital Period (minutes)
Azimuth
Elevation
Range (km)
Doppler Factor

Next 0 passes for location: London (51.5072 / 0.1276)

No passes found over London.
GPS BIIF-10